When you browse on this site, cookies collect data to enhance your experience and personalize the content and advertising you see.
Visit our Privacy Policy to learn more. By continuing to use the site, you agree to this use of cookies and data.

Hourly Weather Konstantyna

Today, 24 September, Thursday

Time Temperature Precipitation Wind Pressure Humidity
00:00 +22°C° 0 mm 0 mps 710 mmHg 68%
01:00 +22°C° 0 mm 0 mps 710 mmHg 67%
02:00 +24°C° 0 mm 1 mps 710 mmHg 66%
03:00 +23°C° 0 mm 1 mps 710 mmHg 65%
04:00 +24°C° 0 mm 1 mps 710 mmHg 61%
05:00 +24°C° 0 mm 1 mps 710 mmHg 56%
06:00 +25°C° 0 mm 1 mps 710 mmHg 53%
07:00 +27°C° 0 mm 2 mps 711 mmHg 44%
08:00 +29°C° 0 mm 2 mps 711 mmHg 36%
09:00 +31°C° 0 mm 3 mps 712 mmHg 27%
10:00 +33°C° 0 mm 4 mps 712 mmHg 25%
11:00 +35°C° 0 mm 5 mps 712 mmHg 23%
12:00 +36°C° 0 mm 6 mps 713 mmHg 21%
13:00 +36°C° 0 mm 5 mps 712 mmHg 22%
14:00 +35°C° 0 mm 5 mps 712 mmHg 23%
15:00 +35°C° 0 mm 5 mps 711 mmHg 23%
16:00 +33°C° 0 mm 4 mps 711 mmHg 29%
17:00 +30°C° 0 mm 3 mps 711 mmHg 34%
18:00 +28°C° 0 mm 2 mps 711 mmHg 39%
19:00 +28°C° 0 mm 2 mps 711 mmHg 41%
20:00 +27°C° 0 mm 1 mps 711 mmHg 43%
21:00 +26°C° 0 mm 1 mps 712 mmHg 45%
22:00 +26°C° 0 mm 1 mps 711 mmHg 46%
23:00 +23°C° 0 mm 0 mps 711 mmHg 47%

Tomorrow, 25 September, Friday

Time Temperature Precipitation Wind Pressure Humidity
00:00 +23°C° 0 mm 0 mps 710 mmHg 48%
01:00 +23°C° 0 mm 0 mps 710 mmHg 49%
02:00 +24°C° 0 mm 1 mps 710 mmHg 49%
03:00 +24°C° 0 mm 1 mps 710 mmHg 50%
04:00 +24°C° 0 mm 1 mps 709 mmHg 49%
05:00 +24°C° 0 mm 2 mps 709 mmHg 48%
06:00 +25°C° 0 mm 2 mps 709 mmHg 48%
07:00 +27°C° 0 mm 3 mps 710 mmHg 41%
08:00 +29°C° 0 mm 4 mps 710 mmHg 35%
09:00 +32°C° 0 mm 5 mps 710 mmHg 29%
10:00 +32°C° 0 mm 6 mps 710 mmHg 29%
11:00 +33°C° 0 mm 7 mps 710 mmHg 29%
12:00 +33°C° 0 mm 8 mps 709 mmHg 29%
13:00 +32°C° 0.1 mm 8 mps 709 mmHg 35%
14:00 +30°C° 0.1 mm 7 mps 709 mmHg 41%
15:00 +28°C° 0.1 mm 7 mps 708 mmHg 47%
16:00 +26°C° 0.1 mm 7 mps 708 mmHg 55%
17:00 +23°C° 0.1 mm 6 mps 709 mmHg 63%
18:00 +21°C° 0.1 mm 5 mps 709 mmHg 72%
19:00 +20°C° 0.1 mm 5 mps 709 mmHg 72%
20:00 +19°C° 0.1 mm 5 mps 709 mmHg 73%
21:00 +17°C° 0.1 mm 5 mps 709 mmHg 73%
22:00 +17°C° 0 mm 6 mps 709 mmHg 69%
23:00 +16°C° 0 mm 7 mps 709 mmHg 65%

Day after tomorrow, 26 September, Saturday

Time Temperature Precipitation Wind Pressure Humidity
00:00 +16°C° 0 mm 7 mps 709 mmHg 61%
01:00 +15°C° 0.1 mm 8 mps 709 mmHg 62%
02:00 +15°C° 0.1 mm 8 mps 708 mmHg 63%
03:00 +15°C° 0.1 mm 9 mps 708 mmHg 64%
04:00 +15°C° 0.1 mm 9 mps 708 mmHg 66%
05:00 +13°C° 0.1 mm 8 mps 708 mmHg 67%
06:00 +13°C° 0.1 mm 8 mps 708 mmHg 69%
07:00 +15°C° 0.1 mm 8 mps 709 mmHg 66%
08:00 +15°C° 0.1 mm 8 mps 709 mmHg 64%
09:00 +16°C° 0.1 mm 8 mps 709 mmHg 61%
10:00 +16°C° 0.1 mm 7 mps 709 mmHg 61%
11:00 +16°C° 0.1 mm 7 mps 709 mmHg 61%
12:00 +16°C° 0.1 mm 6 mps 709 mmHg 61%
13:00 +16°C° 0.1 mm 5 mps 709 mmHg 62%
14:00 +16°C° 0.1 mm 5 mps 709 mmHg 62%
15:00 +16°C° 0.1 mm 5 mps 709 mmHg 62%
16:00 +17°C° 0.1 mm 4 mps 708 mmHg 65%
17:00 +16°C° 0.1 mm 3 mps 708 mmHg 67%
18:00 +16°C° 0.1 mm 2 mps 708 mmHg 69%
19:00 +16°C° 0 mm 2 mps 708 mmHg 71%
20:00 +15°C° 0 mm 2 mps 708 mmHg 72%
21:00 +15°C° 0 mm 2 mps 709 mmHg 73%
22:00 +15°C° 0 mm 2 mps 708 mmHg 72%
23:00 +15°C° 0 mm 2 mps 708 mmHg 71%

27 September, Sunday

Time Temperature Precipitation Wind Pressure Humidity
00:00 +14°C° 0 mm 2 mps 708 mmHg 70%
01:00 +14°C° 0 mm 2 mps 707 mmHg 69%
02:00 +14°C° 0 mm 2 mps 707 mmHg 68%
03:00 +14°C° 0 mm 2 mps 706 mmHg 67%
04:00 +14°C° 0 mm 2 mps 706 mmHg 67%
05:00 +14°C° 0 mm 2 mps 706 mmHg 67%
06:00 +14°C° 0 mm 1 mps 707 mmHg 66%
07:00 +15°C° 0 mm 2 mps 707 mmHg 60%
08:00 +17°C° 0 mm 2 mps 707 mmHg 54%
09:00 +18°C° 0 mm 3 mps 707 mmHg 48%
10:00 +20°C° 0 mm 3 mps 707 mmHg 44%
11:00 +21°C° 0 mm 4 mps 707 mmHg 39%
12:00 +22°C° 0 mm 5 mps 707 mmHg 35%
13:00 +23°C° 0 mm 5 mps 707 mmHg 35%
14:00 +23°C° 0 mm 5 mps 706 mmHg 34%
15:00 +23°C° 0 mm 5 mps 706 mmHg 34%
16:00 +22°C° 0 mm 4 mps 706 mmHg 42%
17:00 +21°C° 0 mm 4 mps 706 mmHg 49%
18:00 +19°C° 0 mm 3 mps 706 mmHg 56%
19:00 +19°C° 0 mm 2 mps 706 mmHg 61%
20:00 +19°C° 0 mm 1 mps 707 mmHg 66%
21:00 +16°C° 0 mm 0 mps 707 mmHg 72%
22:00 +18°C° 0.1 mm 1 mps 707 mmHg 72%
23:00 +18°C° 0.1 mm 1 mps 707 mmHg 72%

28 September, Monday

Time Temperature Precipitation Wind Pressure Humidity
00:00 +18°C° 0.1 mm 1 mps 707 mmHg 73%
01:00 +16°C° 1.2 mm 2 mps 707 mmHg 76%
02:00 +16°C° 1.2 mm 2 mps 707 mmHg 79%
03:00 +16°C° 1.2 mm 2 mps 707 mmHg 82%
04:00 +16°C° 0.7 mm 2 mps 707 mmHg 83%
05:00 +15°C° 0.7 mm 2 mps 708 mmHg 83%
06:00 +15°C° 0.7 mm 2 mps 708 mmHg 83%
07:00 +16°C° 0.1 mm 2 mps 709 mmHg 75%
08:00 +17°C° 0.1 mm 3 mps 709 mmHg 68%
09:00 +18°C° 0.1 mm 4 mps 710 mmHg 61%
10:00 +19°C° 0 mm 4 mps 710 mmHg 57%
11:00 +20°C° 0 mm 5 mps 710 mmHg 53%
12:00 +20°C° 0 mm 5 mps 711 mmHg 49%
13:00 +20°C° 0 mm 5 mps 711 mmHg 48%
14:00 +20°C° 0 mm 5 mps 710 mmHg 47%
15:00 +20°C° 0 mm 5 mps 710 mmHg 47%
16:00 +19°C° 0 mm 4 mps 711 mmHg 51%
17:00 +18°C° 0 mm 3 mps 711 mmHg 56%
18:00 +18°C° 0 mm 1 mps 711 mmHg 60%
19:00 +18°C° 0 mm 1 mps 711 mmHg 63%
20:00 +16°C° 0 mm 1 mps 711 mmHg 65%
21:00 +15°C° 0 mm 0 mps 712 mmHg 68%
22:00 +16°C° 0 mm 1 mps 712 mmHg 68%
23:00 +16°C° 0 mm 1 mps 712 mmHg 69%

29 September, Tuesday

Time Temperature Precipitation Wind Pressure Humidity
00:00 +15°C° 0 mm 1 mps 711 mmHg 69%
01:00 +15°C° 0 mm 1 mps 711 mmHg 69%
02:00 +15°C° 0 mm 1 mps 711 mmHg 68%
03:00 +15°C° 0 mm 1 mps 711 mmHg 68%
04:00 +15°C° 0 mm 1 mps 711 mmHg 66%
05:00 +15°C° 0 mm 1 mps 711 mmHg 65%
06:00 +15°C° 0 mm 1 mps 711 mmHg 63%
07:00 +18°C° 0 mm 1 mps 712 mmHg 55%
08:00 +19°C° 0 mm 2 mps 712 mmHg 47%
09:00 +21°C° 0 mm 2 mps 712 mmHg 39%
10:00 +24°C° 0 mm 2 mps 712 mmHg 35%
11:00 +26°C° 0 mm 3 mps 712 mmHg 31%
12:00 +28°C° 0 mm 3 mps 712 mmHg 27%
13:00 +28°C° 0 mm 3 mps 712 mmHg 27%
14:00 +29°C° 0 mm 4 mps 712 mmHg 28%
15:00 +29°C° 0 mm 4 mps 712 mmHg 28%
16:00 +28°C° 0 mm 4 mps 711 mmHg 32%
17:00 +26°C° 0 mm 3 mps 711 mmHg 37%
18:00 +25°C° 0 mm 2 mps 711 mmHg 41%
19:00 +24°C° 0 mm 2 mps 711 mmHg 42%
20:00 +24°C° 0 mm 2 mps 711 mmHg 43%
21:00 +23°C° 0 mm 2 mps 711 mmHg 44%
22:00 +23°C° 0 mm 2 mps 710 mmHg 45%
23:00 +23°C° 0 mm 2 mps 710 mmHg 45%
Show more